AirNav   Duncan Aviation - Near you to keep you flying
 
 1083 users online  

68Y Wells Municipal Airport
Wells, Minnesota, USA

GOING TO WELLS?


FAA INFORMATION EFFECTIVE 09 SEPTEMBER 2021

Location

FAA Identifier: 68Y
Lat/Long: 43-44-28.3950N 093-46-37.8300W
43-44.473250N 093-46.630500W
43.7412208,-93.7771750
(estimated)
Elevation: 1119 ft. / 341 m (estimated)
Variation: 04E (1985)
From city: 2 miles W of WELLS, MN
Time zone: UTC -5 (UTC -6 during Standard Time)
Zip code: 56097

Airport Operations

Airport use: Open to the public
Activation date: 07/1966
Control tower: no
ARTCC: MINNEAPOLIS CENTER
FSS: PRINCETON FLIGHT SERVICE STATION
NOTAMs facility: PNM (NOTAM-D service available)
Attendance: MAY-OCT MON-FRI 0730-2000, NOV-APR MON-FRI 0800-1700
Wind indicator: lighted
Segmented circle: no
Lights: SS-SR
Beacon: white-green (lighted land airport)
Operates sunset to sunrise.

Airport Communications

CTAF: 122.9
WX AWOS-3 at AEL (18 nm E): 109.8 (507-377-1583)

Nearby radio navigation aids

VOR radial/distance  VOR name  Freq  Var
AELr280/18.0ALBERT LEA VOR/DME109.8001E
MKTr162/29.3MANKATO VOR/DME110.8007E
FOWr210/32.9HALFWAY VOR/DME111.2002E
JAYr285/38.6AUSTIN VOR/DME108.2000E

Airport Services

Fuel available: 100LL
100LL:100LL FROM FUEL TRUCK, SVC AFT HRS CALL 507-553-3100.
Parking: tiedowns
Airframe service: MAJOR
Powerplant service: MAJOR
Bottled oxygen: NONE
Bulk oxygen: NONE

Runway Information

Runway 17/35

Dimensions: 2897 x 165 ft. / 883 x 50 m
Surface: turf, in good condition
Runway edge lights: non-standard
LIRL NSTD DUE TO SPACING.
Runway edge markings: 17/35 MKD WITH YELLOW CONES.
RUNWAY 17  RUNWAY 35
Latitude: 43-44.712000N43-44.234500N
Longitude: 093-46.631333W093-46.629667W
Elevation: 1113.0 ft.1119.0 ft.
Traffic pattern: leftleft
Markings: NSTD, in fair conditionNSTD, in fair condition
Runway end identifier lights: yesyes
Obstructions: 18 ft. road, 498 ft. from runway, 27:1 slope to clearnone

Airport Ownership and Management from official FAA records

Ownership: Publicly-owned
Owner: CITY OF WELLS
125 S. BROADWAY
WELLS, MN 56097
Phone 507-553-6371
Manager: C.J. HOLL
125 S. BROADWAY
WELLS, MN 56097
Phone (507) 553-6371

Airport Operational Statistics

Aircraft based on the field: 8
Single engine airplanes: 8
    
Aircraft operations: avg 115/week *
83% local general aviation
17% transient general aviation
* for 12-month period ending 30 September 2019

Additional Remarks

FOR CD CTC MINNEAPOLIS ARTCC AT 651-463-5588.

Instrument Procedures

There are no published instrument procedures at 68Y.

Some nearby airports with instrument procedures:

KSBU - Blue Earth Municipal Airport (16 nm SW)
KAEL - Albert Lea Municipal Airport (18 nm E)
KACQ - Waseca Municipal Airport (22 nm NE)
KFRM - Fairmont Municipal Airport (28 nm W)
KMKT - Mankato Regional Airport (30 nm N)
 
Loc | Ops | Rwys | IFR | FBO | Links
Com | Nav | Svcs | Stats | Notes
Area around 68Y (Wells Municipal Airport)
 
Road maps at: MapQuest Bing Google
 
Aerial photo
WARNING: Photo may not be current or correct
Aerial photo of 68Y (Wells Municipal Airport)
Photo by Ed Wells
Photo taken 14-Oct-2008

Do you have a better or more recent aerial photo of Wells Municipal Airport that you would like to share? If so, please send us your photo.

 
Sectional chart

 
Airport distance calculator
Flying to Wells Municipal Airport? Find the distance to fly.

From to 68Y

Sunrise and sunset
Times for 26-Sep-2021
 Local
(UTC-5)
 Zulu
(UTC)
Morning civil twilight06:3911:39
Sunrise07:0812:08
Sunset19:0500:05
Evening civil twilight19:3400:34

Current date and time
Zulu (UTC)  26-Sep-2021 20:04:43
Local (UTC-5)  26-Sep-2021 15:04:43
 
METAR
KAEL 
18nm E 
261955Z AUTO 21005KT 10SM CLR 29/12 A2971 RMK AO2
KACQ 
22nm NE 
261955Z AUTO 21005KT 10SM CLR 28/11 A2972 RMK AO2
KFRM 
28nm W 
261956Z AUTO 20011KT 10SM CLR 31/11 A2969 RMK AO2 SLP050 T03060111
KMKT 
29nm N 
261956Z AUTO 22012KT 9SM CLR 29/11 A2968 RMK AO2 SLP048 T02940111
KFXY 
31nm S 
261955Z AUTO 19010KT 10SM CLR 30/10 A2972 RMK AO2
KOWA 
32nm NE 
261953Z AUTO 16005KT 10SM CLR 29/13 A2970 RMK AO2
KJYG 
36nm NW 
261955Z AUTO 17008KT 10SM CLR 31/09 A2967 RMK AO2 TSNO
TAF
KMKT 
29nm N 
261739Z 2618/2718 19006KT P6SM SCT250 FM270100 VRB03KT P6SM SKC FM271400 05005KT P6SM SKC
NOTAMs
Click for the latest NOTAMs
NOTAMs are issued by the DoD/FAA and will open in a separate window not controlled by AirNav.

 

 
 

FBO, Fuel Providers, and Aircraft Ground Support

  
 Business Name 
 
 Contact 
 
 Services / Description 
 
Fuel Prices
 
Comments
  
Wells Aviation 507-553-3100
no information available

If you are affiliated with Wells Aviation and would like to show here your services, contact info, web link, logo, and more, click here
100LL
FS $5.00 
 Updated 23-Sep-2021
 
   write
FS=Full service
Update Fuel Prices
 

Would you like to see your business listed on this page?

 If your business provides an interesting product or service to pilots, flight crews, aircraft, or users of the Wells Municipal Airport, you should consider listing it here.  To start the listing process, click on the button below
 
Add a business
 

Other Pages about Wells Municipal Airport

Update a link
 
Copyright © AirNav, LLC. All rights reserved. Privacy Policy  Contact